Simultaneous Nadir Overpasses (SNOs) Predictions

Prediction of SNOs near equator between AQUA and NPP Satellite Orbit:

Table of predicted SNOs near equator for the next 14.0 days since TLE Epoch: 7/25/2014
Index Date (AQUA) Time (AQUA) AQUA Lat,Lon Date (NPP) Time (NPP) NPP Lat,Lon Distance(km) Time Diff (sec)
1 07/27/2014 04:41:56 -29.98, -51.30 07/27/2014 04:34:06 -30.12, -50.56 73.59 470
2 07/27/2014 05:31:26 29.95, 116.33 07/27/2014 05:24:53 30.02, 116.77 43.22 393
3 07/27/2014 06:20:49 -29.97, -76.02 07/27/2014 06:15:34 -30.00, -75.90 12.47 315
4 07/27/2014 07:06:25 15.85, 94.99 07/27/2014 07:02:21 15.84, 95.00 1.34 244
5 07/27/2014 07:48:52 9.24, -91.96 07/27/2014 07:45:55 9.24, -91.96 0.09 177
6 07/27/2014 08:34:25 -23.58, 78.91 07/27/2014 08:32:39 -23.61, 78.78 13.27 106
7 07/27/2014 09:22:31 28.18,-112.30 07/27/2014 09:22:01 28.24,-112.67 37.44 30
8 07/27/2014 10:11:33 -29.89, 55.77 07/27/2014 10:12:19 -30.03, 55.11 64.73 46
9 07/27/2014 11:00:55 29.94,-136.57 07/27/2014 11:02:59 30.11,-137.54 95.29 124
10 07/29/2014 20:09:04 29.95,-103.08 07/29/2014 20:00:25 30.15,-102.12 95.04 519
11 07/29/2014 20:58:27 -29.97, 64.57 07/29/2014 20:51:06 -30.13, 65.21 64.47 441
12 07/29/2014 21:47:57 29.94,-127.80 07/29/2014 21:41:53 30.04,-127.46 34.01 364
13 07/29/2014 22:37:20 -29.96, 39.85 07/29/2014 22:32:33 -29.96, 39.89 3.42 287
14 07/29/2014 23:20:49 8.17,-147.46 07/29/2014 23:17:10 8.16,-147.45 1.45 219
15 07/30/2014 00:03:16 16.92, 25.61 07/30/2014 00:00:44 16.92, 25.61 0.13 152
16 07/30/2014 00:50:28 -25.27,-164.81 07/30/2014 00:49:10 -25.29,-165.01 20.45 78
17 07/30/2014 01:38:35 29.82, 3.99 07/30/2014 01:38:32 29.92, 3.56 43.59 3
18 07/30/2014 02:28:04 -29.90, 171.64 07/30/2014 02:29:18 -30.08, 170.90 73.95 74
19 08/01/2014 12:25:35 29.95, 12.79 08/01/2014 12:17:24 30.11, 13.66 85.81 491
20 08/01/2014 13:14:58 -29.96,-179.56 08/01/2014 13:08:05 -30.09,-179.01 55.14 413
21 08/01/2014 14:04:28 29.95, -11.93 08/01/2014 13:58:52 30.00, -11.68 24.65 336
22 08/01/2014 14:52:48 -26.18, 156.68 08/01/2014 14:48:28 -26.18, 156.67 0.65 260
23 08/01/2014 15:35:39 2.06, -30.29 08/01/2014 15:32:26 2.07, -30.30 1.35 193
24 08/01/2014 16:18:16 22.40, 142.74 08/01/2014 16:16:10 22.41, 142.72 2.26 126
25 08/01/2014 17:06:32 -26.89, -48.54 08/01/2014 17:05:41 -26.97, -48.80 27.29 51
26 08/01/2014 17:55:04 29.94, 119.89 08/01/2014 17:55:30 30.02, 119.35 52.70 26
27 08/01/2014 18:44:35 -29.90, -72.49 08/01/2014 18:46:18 -30.06, -73.34 83.21 103
28 08/04/2014 04:42:06 29.97, 128.65 08/04/2014 04:34:24 30.13, 129.42 76.43 462
29 08/04/2014 05:31:29 -29.97, -63.69 08/04/2014 05:25:04 -30.05, -63.23 45.87 385
30 08/04/2014 06:20:59 29.96, 103.93 08/04/2014 06:15:52 30.02, 104.08 15.55 307
31 08/04/2014 07:07:05 -18.12, -85.54 08/04/2014 07:03:10 -18.12, -85.53 1.06 235
32 08/04/2014 07:49:52 -6.20, 87.34 08/04/2014 07:47:04 -6.20, 87.33 0.98 168
33 08/04/2014 08:34:18 24.08,-100.99 08/04/2014 08:32:40 24.09,-101.08 9.68 98
34 08/04/2014 09:22:34 -28.56, 67.75 08/04/2014 09:22:11 -28.64, 67.42 33.81 23
35 08/04/2014 10:11:34 29.92,-124.24 08/04/2014 10:12:28 30.06,-124.87 61.97 54
36 08/04/2014 11:01:05 -29.89, 43.37 08/04/2014 11:03:16 -30.10, 42.44 92.55 131
37 08/06/2014 20:09:05 -29.94, 76.91 08/06/2014 20:00:34 -30.13, 77.90 97.65 511
38 08/06/2014 20:58:36 29.99,-115.48 08/06/2014 20:51:23 30.16,-114.81 67.06 433
39 08/06/2014 21:47:59 -29.99, 52.17 08/06/2014 21:42:03 -30.07, 52.54 36.39 356
40 08/06/2014 22:37:29 29.98,-140.20 08/06/2014 22:32:50 29.98,-140.14 6.12 279
41 08/06/2014 23:21:47 -11.63, 31.78 08/06/2014 23:18:18 -11.63, 31.77 0.61 209
42 08/07/2014 00:04:02 -14.69,-154.94 08/07/2014 00:01:39 -14.69,-154.94 0.05 143
43 08/07/2014 00:50:21 25.74, 15.29 08/07/2014 00:49:11 25.77, 15.12 16.93 70
44 08/07/2014 01:38:42 -29.92,-176.03 08/07/2014 01:38:47 -30.02,-176.43 40.73 5
45 08/07/2014 02:28:05 29.90, -8.38 08/07/2014 02:29:28 30.04, -9.10 71.42 83




NCC Satellite Simultaneous Nadir Overpasses (SNOs) Prediction Service
